LEMUR 2 SCHMIDTFALL

导读

LEMUR 2 SCHMIDTFALL是美国Spire Global公司运营的LEMUR-2系列纳米卫星,隶属于全球商业遥感卫星星座,于2020年9月3日成功发射。作为Spire低轨星座的组成部分,该卫星主要承担全球船舶跟踪与气象监测任务,依托近地轨道部署优势,可覆盖全球范围采集数据,为海事活动监控和气象预报提供支持,是商业航天遥感应用领域的典型节点。

基本信息
目录编号:
46315
目录名称:
LEMUR 2 SCHMIDTFALL
国际标识:
2020-061AV
轨道中心:
EARTH
卫星名称:
LEMUR 2 SCHMIDTFALL
卫星全名:
--
卫星状态:
已陨落 最后检测时间 2023-12-08
发射日期:
2020-09-03 UTC
国别 :
美国 (US)
星等 :
--
轨道信息
数据来源 国际轨道数据
星历时间: 2023-12-05T21:41:31+0800
轨道信息已过期951天
半长轴: 6581.929km
偏心率: 0.0008065
轨道倾角: 97.364°
近地点辐角 285.564°
升交点赤经 63.071°
平近点角 74.476°
近地点: 198.485km
远地点: 209.103km
周期: 88.571分钟
每日圈数: 16.258221
详细信息
使用方式:
暂无